Probability
0 0 0 0 0 0 0 0 0 0 0 0 0 0 0 0 0 0 0 0 0 0 0 0 0 0 0 0 0 0 0 0 0 0 0 0 0 0 0 0 0 0 0
0 0 0 0 0 0 0 0 0 0 0 0 0 0 0 0 0 0 0 0 0 0 0 0 0 0 0 0 0 0 0 0 0 0 0 0 0 0 0 0 0 0 0
0 0 0 0 0 0 0 0 0 0 0 0 0 0 0 0 0 0 0 0 0 0 0 0 0 0 0 0 0 0 0 0 0 0 0 0 0 0 0 0 0 0 0
0 0 0 0 0 0 0 0 0 0 0 0 0 0 0 0 0 0 0 0 0 0 0 0 0 0 0 0 0 0 0 0 0 0 0 0 0 0 0 0 0 0 0
0 0 0 0 0 0 0 0 0 0 0 0 0 0 0 0 0 0 0 0 0 0 0 0 0 0 0 0 0 0 0 0 0 0 0 0 0 0 0 0 0 0 0
0 0 0 0 0 0 0 0 0 0 0 0 0 0 0 0 0 0 0 0 0 0 0 0 0 0 0 0 0 0 0 0 0 0 0 0 0 0 0 0 0 0 0
0 0 0 0 0 0 0 0 0 0 0 0 0 0 0 0 0 0 0 0 0 0 0 0 0 0 0 0 0 0 0 0 0 0 0 0 0 0 0 0 0 0 0
0 0 0 0 0 0 0 0 0 0 0 0 0 0 0 0 0 0 0 0 0 0 0 0 0 0 0 0 0 0 0 0 0 0 0 0 0 0 0 0 0 0 0
0 0 0 0 0 0 0 0 0 0 0 0 0 0 0 0 0 0 0 0 0 0 0 0 0 0 0 0 0 0 0 0 0 0 0 0 0 0 0 0 0 0 0
0 0 0 0 0 0 0 0 0 0 0 0 0 0 0 0 0 0 0 0 0 0 0 0 0 0 0 0 0 0 0 0 0 0 0 0 0 0 0 0 0 0 0
0 0 0 0 0 0 0 0 0 0 0 0 0 0 0 0 0 0 0 0 0 0 0 0 0 0 0 0 0 0 0 0 0 0 0 0 0 0 0 0 0 0 0
0 0 0 0 0 0 0 0 0 0 0 0 0 0 0 0 0 0 0 0 0 0 0 0 0 0 0 0 0 0 0 0 0 0 0 0 0 0 0 0 0 0 0
0 0 0 0 0 0 0 0 0 0 0 0 0 0 0 0 0 0 0 0 0 0 0 0 0 0 0 0 0 0 0 0 0 0 0 0 0 0 0 0 0 0 0
0 0 0 0 0 0 0 0 0 0 0 0 0 0 0 0 0 0 0 0 0 0 0 0 0 0 0 0 0 0 0 0 0 0 0 0 0 0 0 0 0 0 0
0 0 0 0 0 0 0 0 0 0 0 0 0 0 0 0 0 0 0 0 0 0 0 0 0 0 0 0 0 0 0 0 0 0 0 0 0 0 0 0 0 0 0
0 0 0 0 0 0 0 0 0 0 0 0 0 0 0 0 0 0 0 0 0 0 0 0 0 0 0 0 0 0 0 0 0 0 0 0 0 0 0 0 0 0 0
0 0 0 0 0 0 0 0 0 0 0 0 0 0 0 0 0 0 0 0 0 0 0 0 0 0 0 0 0 0 0 0 0 0 0 0 0 0 0 0 0 0 0
0 0 0 0 0 0 0 0 0 0 0 0 0 0 0 0 0 0 0 0 0 0 0 0 0 0 0 0 0 0 0 0 0 0 0 0 0 0 0 0 0 0 0
0 0 0 0 0 0 0 0 0 0 0 0 0 0 0 0 0 0 0 0 0 0 0 0 0 0 0 0 0 0 0 0 0 0 0 0 0 0 0 0 0 0 0
0 0 0 0 0 0 0 0 0 0 0 0 0 0 0 0 0 0 0 0 0 0 0 0 0 0 0 0 0 0 0 0 0 0 0 0 0 0 0 0 0 0 0
0 0 0 0 0 0 0 0 0 0 0 0 0 0 0 0 0 0 0 0 0 0 0 0 0 0 0 0 0 0 0 0 0 0 0 0 0 0 0 0 0 0 0
0 0 0 0 0 0 0 0 0 0 0 0 0 0 0 0 0 0 0 0 0 0 0 0 0 0 0 0 0 0 0 0 0 0 0 0 0 0 0 0 0 0 0
0 0 0 0 0 0 0 0 0 0 0 0 0 0 0 0 0 0 0 0 0 0 0 0 0 0 0 0 0 0 0 0 0 0 0 0 0 0 0 0 0 0 0
0 0 0 0 0 0 0 0 0 0 0 0 0 0 0 0 0 0 0 0 0 0 0 0 0 0 0 0 0 0 0 0 0 0 0 0 0 0 0 0 0 0 0
0 0 0 0 0 0 0 0 0 0 0 0 0 0 0 0 0 0 0 0 0 0 0 0 0 0 0 0 0 0 0 0 0 0 0 0 0 0 0 0 0 0 0
0 0 0 0 0 0 0 0 0 0 0 0 0 0 0 0 0 0 0 0 0 0 0 0 0 0 0 0 0 0 0 0 0 0 0 0 0 0 0 0 0 0 0
Wind_Speed
3 2 2 1 1 1 1 1 1 2 2 2 2 2 3 3 3 3 3 7 9 10 12 13 13 14 14 15 14 14 14 13 13 13 13 13 14 15 15 16 16 17 17
4 3 2 2 1 1 1 1 0 0 1 1 2 3 3 4 4 4 3 4 8 10 11 12 13 14 15 16 16 16 16 16 15 14 14 14 14 14 15 16 16 18 19
4 4 3 2 2 2 1 1 0 0 1 2 3 3 3 4 4 5 4 3 4 7 9 11 12 13 14 15 15 16 17 17 17 16 16 15 15 16 17 17 18 18 18
5 4 3 3 3 2 2 1 1 1 2 2 3 3 3 4 5 4 3 3 3 3 5 9 11 12 14 15 15 16 17 17 17 17 17 17 17 17 17 17 17 18 19
6 4 4 3 4 3 2 2 2 1 2 2 3 4 4 4 4 3 3 3 3 3 3 6 9 10 13 14 16 17 18 18 18 18 18 18 18 19 19 19 19 19 20
6 5 4 4 4 3 3 3 3 2 2 2 3 4 4 4 3 2 3 2 2 3 3 4 4 6 11 14 16 17 18 19 19 19 19 20 20 20 21 21 21 22 22
7 6 4 4 4 4 4 4 3 2 2 1 1 3 4 2 2 1 1 2 3 3 4 4 4 4 5 12 15 17 18 19 20 20 21 21 21 22 22 23 24 24 24
7 6 6 5 5 4 4 4 3 2 1 1 1 1 4 5 3 2 2 2 3 3 4 4 5 5 4 4 10 17 19 20 21 21 22 22 23 23 24 25 25 26 26
8 7 7 6 5 5 4 5 5 4 2 2 2 1 0 2 4 3 2 2 3 3 3 4 5 5 5 4 5 12 18 20 21 22 23 23 24 24 25 25 26 26 27
8 7 7 6 6 4 4 4 4 3 3 2 1 1 1 1 1 4 3 2 2 3 4 4 4 4 5 5 7 14 18 20 20 21 22 23 24 25 25 26 26 27 27
6 6 6 5 5 4 4 4 4 4 3 3 2 2 1 1 2 2 5 4 4 3 3 3 2 3 5 5 5 13 19 20 21 22 22 23 24 25 25 26 27 27 27
3 4 5 5 5 4 4 4 4 4 3 3 2 2 2 1 1 2 3 4 4 4 3 2 3 3 4 6 9 17 19 21 22 23 23 23 24 25 26 26 27 27 28
3 4 5 5 4 4 5 5 5 4 4 4 3 2 2 1 1 0 1 3 3 3 3 2 2 3 5 6 7 17 17 21 22 23 23 24 24 25 25 26 26 27 27
5 5 6 6 6 6 6 6 5 5 4 5 5 4 3 2 2 1 0 1 3 3 3 3 1 3 5 5 11 16 11 20 22 23 23 23 24 24 25 25 26 27 27
6 7 7 7 6 6 6 7 5 5 5 5 5 5 4 3 3 2 2 1 1 3 4 3 2 3 5 5 11 8 9 17 21 21 22 23 23 24 24 25 26 26 26
8 9 8 8 7 7 7 7 6 5 6 5 4 5 4 3 3 3 2 2 1 1 4 3 2 4 6 6 12 8 8 18 17 20 21 22 22 23 23 24 25 25 26
9 9 9 9 8 7 7 7 7 6 7 5 5 5 5 3 3 2 2 2 1 1 4 4 2 5 5 7 8 6 7 6 8 18 20 21 22 22 23 23 24 25 25
9 9 9 9 8 7 7 7 8 6 6 6 5 5 4 3 3 2 2 2 1 1 3 7 5 5 6 8 8 8 7 7 6 15 20 20 20 22 22 23 23 23 24
10 9 9 9 8 8 7 7 7 7 6 5 5 4 4 3 3 2 1 1 1 2 2 5 7 5 5 6 8 7 7 6 6 11 16 16 19 21 22 22 22 22 23
11 10 8 8 8 7 7 7 7 7 6 5 4 4 3 3 2 1 1 1 1 2 3 4 6 6 5 6 6 8 9 7 8 7 10 13 17 19 20 21 21 21 22
10 10 10 9 7 6 6 7 7 6 6 5 4 3 2 2 2 1 1 1 2 2 3 4 6 7 7 8 8 7 10 10 8 4 6 8 8 7 9 14 17 20 22
9 9 9 9 7 5 10 11 8 6 5 5 4 3 2 2 2 3 4 4 4 4 5 4 6 8 9 9 8 8 9 10 9 4 8 10 5 6 6 6 16 21 22
9 9 8 7 7 8 12 11 10 6 5 4 3 2 1 1 1 1 3 5 5 7 8 6 6 7 9 8 9 9 8 9 9 8 8 9 5 6 6 8 17 19 21
8 8 8 7 7 7 11 10 10 6 5 4 3 2 1 0 1 2 2 3 3 4 6 4 5 6 6 6 6 7 8 8 8 5 4 6 6 6 7 6 13 18 20
7 6 7 7 7 7 9 10 9 4 4 3 2 1 1 1 4 5 3 3 4 4 6 9 10 10 11 11 9 5 5 6 7 5 2 4 5 7 6 3 7 16 19
8 7 7 5 6 5 8 9 8 4 3 2 1 1 1 2 4 5 2 3 5 5 4 5 6 7 6 7 9 4 4 5 5 5 3 4 4 6 7 4 4 6 9
Wind_Direction
149 145 136 128 119 101 94 79 55 36 22 4 351 341 324 314 305 299 299 306 312 313 314 315 316 317 317 317 314 310 306 300 295 289 283 280 277 275 272 270 268 267 266
159 159 160 165 171 166 156 141 119 18 333 324 316 313 303 300 294 294 293 304 310 312 313 315 317 320 321 322 323 322 320 318 314 310 302 293 286 281 279 277 274 270 266
170 169 173 186 193 179 169 155 243 334 311 312 306 305 299 292 290 293 298 299 304 309 314 320 324 326 326 326 325 325 324 324 324 322 320 316 309 298 288 282 279 276 274
177 173 182 196 187 173 175 188 208 275 289 295 299 299 292 290 290 294 300 301 305 310 321 328 332 334 333 332 331 330 328 327 327 327 325 324 321 317 312 305 296 287 281
183 181 191 194 180 180 188 192 201 214 274 292 297 297 291 287 292 303 309 315 319 324 327 333 337 337 338 338 337 335 333 332 331 331 330 328 325 322 318 313 309 303 297
187 186 192 192 178 181 193 193 206 209 245 283 299 293 285 287 298 306 309 325 341 351 347 341 340 339 341 343 343 342 341 340 340 339 337 335 332 329 325 321 317 312 307
190 190 192 188 184 196 203 192 187 210 236 209 315 316 313 313 325 316 332 354 2 3 359 353 347 342 338 347 352 353 352 350 348 345 343 339 335 331 327 324 320 317 313
192 194 196 194 193 199 199 189 178 176 195 168 170 336 332 338 340 342 7 16 5 2 356 351 347 346 349 355 358 1 358 354 350 346 342 338 334 330 326 323 320 316 314
196 196 199 196 193 192 201 196 184 183 190 183 185 179 298 307 317 322 347 4 2 354 342 341 348 360 7 9 2 1 359 354 350 345 341 337 332 329 325 321 319 316 314
199 198 197 194 191 187 191 188 181 178 172 184 178 201 209 178 289 313 317 331 348 340 332 341 355 12 18 15 9 3 357 353 348 344 340 336 333 329 326 323 320 317 314
193 191 189 184 180 178 177 167 163 166 172 171 165 166 176 180 200 249 293 316 330 318 327 342 13 22 19 15 3 357 354 350 346 342 338 335 332 329 327 324 321 319 316
174 175 168 168 163 158 161 156 149 150 148 140 133 135 146 161 184 231 275 303 310 307 325 8 33 26 17 10 359 356 352 348 343 341 339 336 333 331 328 325 323 320 318
166 166 153 149 143 139 133 126 123 119 121 121 120 112 103 96 94 151 273 296 297 300 319 7 40 31 17 4 350 352 347 344 341 339 338 336 333 331 329 327 326 324 322
161 148 138 131 126 124 122 117 110 105 104 107 103 102 95 77 68 72 71 312 306 305 304 308 7 34 13 357 345 350 339 339 338 338 337 336 334 332 331 330 328 325 323
136 132 128 123 118 118 119 116 110 108 105 99 99 96 90 76 69 63 62 70 306 306 297 306 339 7 0 347 339 336 329 330 335 336 335 334 334 333 332 331 329 328 327
135 132 127 122 118 114 112 110 108 108 103 96 97 95 85 76 70 64 62 52 51 268 280 293 316 338 338 334 333 328 318 331 331 333 333 333 334 334 333 332 332 330 328
137 135 133 128 124 118 116 114 111 111 108 101 94 95 88 84 80 66 59 56 45 325 280 293 303 325 321 324 324 319 315 316 321 329 332 334 335 335 334 334 334 332 331
133 132 131 126 122 119 118 119 117 114 114 111 105 100 94 90 82 66 55 43 17 338 301 303 309 322 319 318 317 318 323 324 315 324 331 333 336 336 335 335 335 334 333
129 126 128 126 124 121 117 114 116 113 110 110 110 107 103 95 82 61 45 22 345 330 307 303 308 310 309 316 322 318 315 312 315 322 327 333 334 334 334 336 336 336 334
130 128 124 122 121 120 119 118 116 114 111 106 103 102 100 96 91 62 33 352 329 321 310 305 307 313 314 318 324 330 329 329 322 317 326 330 328 330 332 334 335 335 335
123 126 124 119 118 120 125 127 123 123 120 113 102 95 92 84 58 39 1 329 326 315 312 312 315 318 323 333 334 329 323 322 316 305 321 318 317 316 324 329 332 336 341
122 124 125 127 125 126 135 134 131 126 123 120 115 103 95 85 29 4 344 334 328 317 313 310 313 316 319 321 321 320 320 324 322 327 327 314 314 314 318 318 331 340 345
129 126 126 127 126 134 137 134 132 127 124 122 122 121 112 72 322 296 316 326 321 313 312 305 300 304 308 313 315 314 316 314 305 310 316 303 313 312 318 324 334 343 348
134 131 132 131 127 135 138 136 133 123 123 124 128 137 145 284 300 310 298 302 295 298 306 302 279 287 295 303 305 308 309 304 290 284 305 295 309 311 315 315 333 348 351
131 129 133 134 133 138 143 141 134 129 129 135 145 159 194 258 307 327 325 307 304 298 314 315 311 312 317 324 329 324 320 319 311 309 342 307 307 314 305 305 336 350 352
132 130 129 131 136 140 148 146 141 136 141 149 161 177 243 290 307 317 306 295 301 307 313 318 319 321 323 324 330 325 307 302 301 300 335 331 308 326 315 307 328 342 348